Regional Weather Roundup
Issued by NWS Green Bay, WI

Home | Current Version | Previous Version | Text Only | Print | Product List | Glossary On
Versions: 1 2 3 4 5 6 7 8 9 10 11 12 13 14 15 16 17 18 19 20 21 22 23 24 25 26 27 28 29 30 31 32 33 34 35 36 37 38 39 40 41 42 43 44 45 46 47 48 49 50
000
ASUS43 KGRB 292110
RWRGRB

NORTH-CENTRAL AND NORTHEAST WISCONSIN REGIONAL WEATHER ROUNDUP
NATIONAL WEATHER SERVICE GREEN BAY WI
400 PM CDT SUN MAR 29 2015

WIZ005-009-010>012-018-019-292200-
NORTH CENTRAL WISCONSIN

CITY           SKY/WX    TMP DP  RH WIND       PRES   REMARKS
IRONWOOD       CLOUDY    34  34 100 W16G24    29.51R
MANITOWISH WTR LGT SNOW  33  33  99 NW15      29.51R
ARBOR VITAE    LGT SNOW  37  35  93 NW12G23   29.50R
EAGLE RIVER    LGT SNOW  33  31  90 W13G20    29.47R
LAND O LAKES   LGT SNOW  34  32  92 W9G20     29.46S
RHINELANDER    LGT SNOW  34  32  92 W17       29.50R FOG
PHILLIPS       CLOUDY    34  32  92 NW14G20   29.56R
ANTIGO         LGT SNOW  33  32  99 W8        29.50R
TOMAHAWK       LGT RAIN  34  32  92 W17G30    29.54R
MERRILL        DRIZZLE   37  35  95 W15G21    29.53R
$$

WIZ013-073-292200-
NORTHEAST WISCONSIN

CITY           SKY/WX    TMP DP  RH WIND       PRES   REMARKS
IRON MOUNTAIN  LGT SNOW  34  31  88 SW6       29.45S FOG
MARINETTE      CLOUDY    34  30  86 SW14G20   29.51F
OCONTO         CLOUDY    34  34 100 SW13      29.54F
$$

WIZ017-030-035>037-045-292200-
CENTRAL WISCONSIN

CITY           SKY/WX    TMP DP  RH WIND       PRES   REMARKS
MEDFORD        CLOUDY    36  33  90 NW18G29   29.58R
WAUSAU         LGT RAIN  39  37  92 W18G25    29.52R
MOSINEE        CLOUDY    36  36 100 W5G22     29.55R FOG
MARSHFIELD     LGT RAIN  40  35  83 NW25G38   29.61R
WISC RAPIDS    LGT RAIN  41  37  86 W16G28    29.59R
STEVENS POINT  DRIZZLE   37  36  96 W12G17    29.56R
WAUPACA        CLOUDY    40  36  86 SW15      29.56S FOG
SHAWANO        DRIZZLE   37  35  90 SW10      29.54S
CLINTONVILLE   DRIZZLE   36  36 100 SW15G22   29.54F
$$

WIZ038-039-048-051-292200-
FOX VALLEY

CITY           SKY/WX    TMP DP  RH WIND       PRES   REMARKS
NWS GREEN BAY  CLOUDY    36  33  89 SW14G22   29.56F FOG
APPLETON       CLOUDY    36  34  93 SW18G25   29.57F
OSHKOSH        CLOUDY    36  32  85 SW18G26   29.58F FOG
FOND DU LAC    LGT RAIN  36  32  85 SW20G31   29.61F FOG
$$

WIZ022-050-052-292200-
EAST CENTRAL WISCONSIN

CITY           SKY/WX    TMP DP  RH WIND       PRES   REMARKS
STURGEON BAY   CLOUDY    34  30  86 SW17G24   29.56F
MANITOWOC      CLOUDY    37  34  89 SW16G24   29.59F
SHEBOYGAN      CLOUDY    37  32  82 SW24G33   29.62F
$$

LMZ563-521-522-541>543-292200-
LAKESHORE

STATION/POSITION TIME  TEMP    WIND        PRES    VSBY  WAVE
                       AIR SEA DIR/SP/G                  HT/PER
                 (UTC) (F)     (DEG/KT/KT) (MB)    (MI)  (FT/S)
SHEBOYGAN LKSHOR 2100   37     210/ 26/ 29 1003.8F
KEWAUNEE LKSHORE 2100   36     210/ 16/ 19 1001.1F
CHAMBERS ISLAND  2100   33     180/ 10/ 20 1000.7F
MENOMINEE LKSHOR 2100   34     200/ 13     1001.0F
$$



USA.gov is the U.S. government's official web portal to all federal, state and local government web resources and services.